Regional Weather Roundup
Issued by NWS Memphis, TN

Home | Current Version | Previous Version | Text Only | Print | Product List | Glossary On
Versions: 1 2 3 4 5 6 7 8 9 10 11 12 13 14 15 16 17 18 19 20 21 22 23 24 25 26 27 28 29 30 31 32 33 34 35 36 37 38 39 40 41 42 43 44 45 46 47 48 49 50
000
ASUS44 KMEG 251300
RWRMEG
MEMPHIS CWA HOURLY WEATHER ROUNDUP
NATIONAL WEATHER SERVICE MEMPHIS TN
800 AM CDT TUE APR 25 2017

...WEST TENNESSEE...

CITY           SKY/WX    TMP DP  RH WIND       PRES   REMARKS
MEMPHIS INTL   MOSUNNY   60  55  83 S7        29.76R
NWS MEMPHIS      N/A     59 N/A N/A MISG        N/A
JACKSON        SUNNY     59  56  89 S3        29.77R
DYERSBURG      SUNNY     59  55  87 CALM      29.77R
PARIS          SUNNY     55  54  94 S3        29.78R


...EASTERN ARKANSAS...

CITY           SKY/WX    TMP DP  RH WIND       PRES   REMARKS
JONESBORO      SUNNY     58  55  90 S13       29.73S
WEST MEMPHIS     N/A     59  57  93 S8        29.75R
BATESVILLE     SUNNY    N/A N/A N/A S9        29.70S
NEWPORT        SUNNY     59  52  77 S12       29.72S
WALNUT RIDGE   SUNNY     59  52  77 S8        29.72R
BLYTHEVILLE    SUNNY     59  56  89 S7        29.76R
SEARCY         SUNNY     57  54  89 CALM      29.73S
STUTTGART      SUNNY     61  43  51 S12       29.74S
PINE BLUFF     MOSUNNY   59  51  75 S7        29.73R
MONTICELLO     SUNNY     62  51  67 S7        29.75R


...NORTH MISSISSIPPI...

CITY           SKY/WX    TMP DP  RH WIND       PRES   REMARKS
TUPELO         MOSUNNY   55  52  89 SE6       29.80S
OLIVE BRANCH   SUNNY    N/A N/A N/A S9        29.76R
TUNICA         SUNNY     55  54  94 S8        29.77S
GREENWOOD      SUNNY     61  56  83 S6        29.79R
COLUMBUS       SUNNY     56  54  95 CALM      29.81R
STARKVILLE     SUNNY     54  54 100 CALM      29.82S
GOLDEN TRIANGL SUNNY     55  50  82 CALM      29.78R


...SOUTHEAST MISSOURI...

CITY           SKY/WX    TMP DP  RH WIND       PRES   REMARKS
MALDEN         SUNNY     59  55  88 S8        29.75R
WEST PLAINS    SUNNY     56  46  69 S7        29.68S
POPLAR BLUFF   SUNNY     58  56  93 SE7       29.72S
CAPE GIRARDEAU SUNNY     59  55  87 S7        29.73S


...NORTHWEST ALABAMA...

CITY           SKY/WX    TMP DP  RH WIND       PRES   REMARKS
MUSCLE SHOALS  FOG       53  51  93 CALM      29.82R VSB 1/2


...MIDDLE TENNESSEE...

CITY           SKY/WX    TMP DP  RH WIND       PRES   REMARKS
NASHVILLE      MOSUNNY   57  55  93 S3        29.81S
CLARKSVILLE    FOG       53  51  93 S3        29.79R VSB 1/4
COLUMBIA       MOSUNNY  N/A N/A N/A CALM      29.79S


...WESTERN KENTUCKY...

CITY           SKY/WX    TMP DP  RH WIND       PRES   REMARKS
PADUCAH        SUNNY     60  54  80 S5        29.75R
FORT CAMPBELL  FOG       54  54 100 SE3       29.78S VSB 3/4


...CENTRAL ARKANSAS...

CITY           SKY/WX    TMP DP  RH WIND       PRES   REMARKS
LITTLE ROCK    MOSUNNY   57  51  80 S8        29.71F


SKY/WX REPORTED AS FAIR MEANS FEW OR NO CLOUDS BELOW
12 THOUSAND FEET.





USA.gov is the U.S. government's official web portal to all federal, state and local government web resources and services.